Simultaneous Nadir Overpasses (SNOs) Predictions

Prediction of SNOs between GOES-15 and METOP-C Satellite Orbit:

Table of predicted SNOs for the next 14.0 days since TLE Epoch: 9/17/2024
Index Date Time (GOES-15) GOES-15 Lat,Lon METOP-C Lat,Lon Distance(km) Time Diff (sec)
1 09/18/2024 05:30:37 -0.28, 61.28 0.08, 59.77 172.27 80
2 09/19/2024 05:12:38 -0.27, 61.27 -1.05, 64.76 398.02 80
3 09/20/2024 17:29:00 0.29, 61.39 0.03, 60.16 139.44 80
4 09/21/2024 17:11:00 0.27, 61.38 1.10, 65.16 430.32 80
5 09/23/2024 05:27:13 -0.29, 61.25 -0.15, 60.59 75.33 80
6 09/24/2024 05:09:14 -0.27, 61.25 -1.24, 65.59 494.36 80
7 09/25/2024 17:25:35 0.29, 61.38 0.23, 60.99 43.71 80
8 09/28/2024 05:26:28 -0.29, 61.25 -0.35, 61.42 19.59 80
9 09/30/2024 17:24:49 0.30, 61.38 0.40, 61.83 51.77 80
